IRIDIUM 57 [-]

Last updated on Wed Jun 28 2023 00:03:02 GMT+0000 (Coordinated Universal Time)

1 25273U 98019B 23178.10805031 .00000411 00000+0 13810-3 0 9996 2 25273 86.3957 87.2038 0002285 85.9241 274.2216 14.34836330321569
UTC large
Height (km)
Speed (km/s)
/
Latitude / Longitude
Inclination (degrees)
Orbital Period (minutes)
Azimuth
Elevation
Range (km)
Doppler Factor

Next 0 passes for location: London (51.5072 / 0.1276)

Sorry there are no passes over London.